Weather reports worldwide

Advertisment
Usk, United Kingdom (99176): temperature & dewpoint: 14.06.2019 13:00:00 - 20.06.2019 13:00:00 (BST)Usk, United Kingdom (99176): temperature -20cm & temperature -100cm: 14.06.2019 13:00:00 - 20.06.2019 13:00:00 (BST)Usk, United Kingdom (99176): precipitation: 14.06.2019 13:00:00 - 20.06.2019 13:00:00 (BST)
Date & Time tt [°C] td [°C] tt -20cm [°C] tt -100cm [°C] rr [mm]
20.06.2019 13:00:00 17,2 9,1 - - 0,0
20.06.2019 12:00:00 15,4 9,0 - - 0,0
20.06.2019 11:00:00 14,7 9,9 - - 0,0
20.06.2019 10:00:00 15,7 8,6 14,7 14,0 0,0
20.06.2019 09:00:00 14,7 9,0 - - 0,0
20.06.2019 08:00:00 13,2 10,5 - - 0,0
20.06.2019 07:00:00 10,6 10,4 - - 0,0
20.06.2019 06:00:00 8,7 8,6 - - 0,0
20.06.2019 05:00:00 7,2 6,9 - - 0,0
20.06.2019 04:00:00 7,4 7,0 - - 0,0
20.06.2019 03:00:00 8,3 7,8 - - 0,0
20.06.2019 02:00:00 8,4 7,7 - - 0,0
20.06.2019 01:00:00 9,6 8,4 - - 0,0
20.06.2019 00:00:00 12,5 9,2 - - 0,0
19.06.2019 23:00:00 14,8 10,6 - - 0,0
19.06.2019 22:00:00 15,9 11,4 - - 0,0
19.06.2019 21:00:00 16,5 12,2 - - 0,0
19.06.2019 20:00:00 17,5 13,7 - - 0,0
19.06.2019 19:00:00 16,9 14,3 - - 0,0
19.06.2019 18:00:00 17,8 14,4 - - 0,0
19.06.2019 17:00:00 17,0 13,7 - - 0,0
19.06.2019 16:00:00 18,1 12,2 - - 0,0
19.06.2019 15:00:00 16,8 13,1 - - 0,0
19.06.2019 14:00:00 16,7 11,7 - - 0,0
19.06.2019 13:00:00 16,9 12,4 - - 0,0
19.06.2019 12:00:00 16,1 12,8 - - 0,0
19.06.2019 11:00:00 16,2 13,2 - - 0,0
19.06.2019 10:00:00 14,7 13,9 14,7 13,9 0,0
19.06.2019 09:00:00 14,0 13,5 - - 0,0
19.06.2019 08:00:00 13,9 13,7 - - 0,0
19.06.2019 07:00:00 13,3 13,2 - - 0,0
19.06.2019 06:00:00 12,8 12,6 - - 0,0
19.06.2019 05:00:00 12,7 12,5 - - 0,0
19.06.2019 04:00:00 12,7 12,5 - - 0,0
19.06.2019 03:00:00 12,6 12,4 - - 0,0
19.06.2019 02:00:00 12,7 12,4 - - 0,0
19.06.2019 01:00:00 13,0 12,6 - - 0,0
19.06.2019 00:00:00 12,9 12,5 - - 0,2
18.06.2019 23:00:00 13,1 12,6 - - 0,2
18.06.2019 22:00:00 13,5 12,9 - - 0,0
18.06.2019 21:00:00 13,9 13,0 - - 0,0
18.06.2019 20:00:00 14,2 13,4 - - 0,2
18.06.2019 19:00:00 14,3 13,0 - - 0,4
18.06.2019 18:00:00 14,8 12,8 - - 0,4
18.06.2019 17:00:00 14,7 12,6 - - 0,6
18.06.2019 16:00:00 14,9 13,1 - - 0,4
18.06.2019 15:00:00 15,4 12,9 - - 0,0
18.06.2019 14:00:00 15,9 12,0 - - 0,2
18.06.2019 13:00:00 16,1 10,9 - - 0,0
18.06.2019 12:00:00 16,2 11,0 - - 0,0
18.06.2019 11:00:00 16,6 12,3 - - 0,0
18.06.2019 10:00:00 15,9 12,3 14,7 13,7 0,0
18.06.2019 09:00:00 14,8 12,0 - - 0,0
18.06.2019 08:00:00 13,5 12,3 - - 0,0
18.06.2019 07:00:00 12,4 12,3 - - 0,0
18.06.2019 06:00:00 10,8 10,6 - - 0,0
18.06.2019 05:00:00 10,1 9,7 - - 0,0
18.06.2019 04:00:00 10,7 10,3 - - 0,0
18.06.2019 03:00:00 10,9 10,0 - - 0,0
18.06.2019 02:00:00 12,0 10,6 - - 0,0
18.06.2019 01:00:00 13,4 11,1 - - 0,0
18.06.2019 00:00:00 14,2 10,8 - - 0,0
17.06.2019 23:00:00 14,6 10,7 - - 0,0
17.06.2019 22:00:00 15,0 10,4 - - 0,0
17.06.2019 21:00:00 15,5 10,4 - - 0,0
17.06.2019 20:00:00 16,2 9,9 - - 0,0
17.06.2019 19:00:00 17,4 10,4 - - 0,0
17.06.2019 18:00:00 17,4 10,1 - - 0,0
17.06.2019 17:00:00 16,9 11,6 - - 0,0
17.06.2019 16:00:00 16,9 11,8 - - 0,0
17.06.2019 15:00:00 17,6 11,3 - - 0,0
17.06.2019 14:00:00 17,7 11,7 - - 0,0
17.06.2019 13:00:00 17,6 11,8 - - 0,0
17.06.2019 12:00:00 17,8 12,3 - - 0,0
17.06.2019 11:00:00 16,5 11,7 - - 0,0
17.06.2019 10:00:00 16,4 12,0 14,7 13,7 0,0
17.06.2019 09:00:00 16,3 12,4 - - 0,0
17.06.2019 08:00:00 14,3 11,6 - - 0,0
17.06.2019 07:00:00 14,2 11,3 - - 0,0
17.06.2019 06:00:00 14,0 10,8 - - 0,0
17.06.2019 05:00:00 14,0 11,6 - - 0,0
17.06.2019 04:00:00 13,7 12,0 - - 0,0
17.06.2019 03:00:00 13,6 12,1 - - 0,0
17.06.2019 02:00:00 14,0 12,0 - - 0,2
17.06.2019 01:00:00 14,0 12,1 - - 0,0
17.06.2019 00:00:00 13,9 12,1 - - 0,0
16.06.2019 23:00:00 14,4 11,7 - - 0,0
16.06.2019 22:00:00 14,7 11,8 - - 0,0
16.06.2019 21:00:00 15,1 11,6 - - 0,0
16.06.2019 20:00:00 14,9 11,8 - - 0,0
16.06.2019 19:00:00 15,9 11,9 - - 0,2
16.06.2019 18:00:00 16,2 11,8 - - 0,0
16.06.2019 17:00:00 16,3 12,6 - - 0,0
16.06.2019 16:00:00 17,1 11,5 - - 0,0
16.06.2019 15:00:00 18,8 10,5 - - 0,0
16.06.2019 14:00:00 18,2 10,8 - - 0,0
16.06.2019 13:00:00 17,2 12,8 - - 0,4
16.06.2019 12:00:00 14,9 11,9 - - 0,8
16.06.2019 11:00:00 17,2 13,1 - - 0,0
16.06.2019 10:00:00 15,5 12,0 14,2 13,7 0,0
16.06.2019 09:00:00 14,1 12,2 - - 0,0
16.06.2019 08:00:00 13,4 11,6 - - 0,0
16.06.2019 07:00:00 11,9 10,8 - - 0,2
16.06.2019 06:00:00 11,5 10,1 - - 0,0
16.06.2019 05:00:00 10,7 9,5 - - 0,0
16.06.2019 04:00:00 11,1 9,5 - - 0,0
16.06.2019 03:00:00 11,0 9,4 - - 0,0
16.06.2019 02:00:00 11,4 9,8 - - 0,0
16.06.2019 01:00:00 11,4 9,7 - - 0,0
16.06.2019 00:00:00 11,6 9,1 - - 0,0
15.06.2019 23:00:00 12,4 8,7 - - 0,0
15.06.2019 22:00:00 12,5 7,6 - - 0,0
15.06.2019 21:00:00 13,6 6,2 - - 0,0
15.06.2019 20:00:00 14,9 5,4 - - 0,0
15.06.2019 19:00:00 15,8 5,5 - - 0,0
15.06.2019 18:00:00 16,5 8,1 - - 0,0
15.06.2019 17:00:00 15,1 5,7 - - 0,0
15.06.2019 16:00:00 16,7 7,5 - - 0,0
15.06.2019 15:00:00 16,8 8,3 - - 0,0
15.06.2019 14:00:00 17,4 8,4 - - 0,0
15.06.2019 13:00:00 16,3 8,8 - - 0,0
15.06.2019 12:00:00 13,8 12,5 - - 0,2
15.06.2019 11:00:00 11,8 10,9 - - 0,4
15.06.2019 10:00:00 12,7 11,6 14,0 13,5 0,6
15.06.2019 09:00:00 12,1 11,1 - - 1,2
15.06.2019 08:00:00 12,0 10,9 - - 0,6
15.06.2019 07:00:00 12,0 10,8 - - 0,2
15.06.2019 06:00:00 11,8 10,5 - - 0,2
15.06.2019 05:00:00 11,8 10,2 - - 0,0
15.06.2019 04:00:00 12,0 10,0 - - 0,0
15.06.2019 03:00:00 11,8 10,0 - - 0,0
15.06.2019 02:00:00 12,0 10,3 - - 0,0
15.06.2019 01:00:00 12,1 10,5 - - 0,0
15.06.2019 00:00:00 11,9 10,7 - - 0,0
14.06.2019 23:00:00 10,3 9,8 - - 0,0
14.06.2019 22:00:00 10,2 9,7 - - 0,0
14.06.2019 21:00:00 11,1 9,3 - - 0,0
14.06.2019 20:00:00 13,2 8,5 - - 0,0
14.06.2019 19:00:00 13,6 11,0 - - 0,4
14.06.2019 18:00:00 13,6 10,9 - - 0,0
14.06.2019 17:00:00 15,2 11,5 - - 0,0
14.06.2019 16:00:00 14,0 11,8 - - 0,8
14.06.2019 15:00:00 14,7 11,3 - - 1,0
14.06.2019 14:00:00 17,1 11,5 - - 0,0
14.06.2019 13:00:00 15,3 12,1 - - 0,0

tt = temperature
td = dewpoint
tt -20cm = temperature -20cm
tt -100cm = temperature -100cm
rr = precipitation

Next stations